| time (UTC) | temp F | wind direction | speed MPH | gust MPH | rain 1hr in | rain 24hr in | rain mn in | humidity % | barometer mb |
| 20260510164006 | 76 | 85 | 3.0 | 9.0 | 0.00 | 0.31 | 0.00 | 84 | 1018.0 |
| 20260510163507 | 75 | 73 | 4.0 | 9.0 | 0.00 | 0.33 | 0.00 | 82 | 1018.0 |
| 20260510163013 | 75 | 79 | 1.0 | 8.0 | 0.00 | 0.36 | 0.00 | 84 | 1018.0 |
| 20260510162506 | 75 | 108 | 3.0 | 8.0 | 0.00 | 0.38 | 0.00 | 84 | 1018.1 |
| 20260510162010 | 75 | 34 | 1.0 | 8.0 | 0.00 | 0.40 | 0.00 | 85 | 1018.2 |
| 20260510161520 | 74 | 348 | 2.0 | 9.0 | 0.00 | 0.41 | 0.00 | 84 | 1018.3 |
| 20260510161011 | 75 | 351 | 5.0 | 9.0 | 0.00 | 0.43 | 0.00 | 84 | 1018.3 |
| 20260510160508 | 74 | 68 | 3.0 | 7.0 | 0.00 | 0.44 | 0.00 | 85 | 1018.3 |
| 20260510160022 | 73 | 335 | 1.0 | 6.0 | 0.00 | 0.46 | 0.00 | 85 | 1018.2 |
| 20260510155510 | 73 | 19 | 1.0 | 6.0 | 0.00 | 0.47 | 0.00 | 85 | 1018.3 |
| 20260510155010 | 72 | 42 | 3.0 | 7.0 | 0.00 | 0.48 | 0.00 | 85 | 1018.3 |
| 20260510154534 | 72 | 21 | 3.0 | 9.0 | 0.00 | 0.50 | 0.00 | 85 | 1018.3 |
| 20260510154016 | 72 | 38 | 4.0 | 9.0 | 0.00 | 0.51 | 0.00 | 85 | 1018.3 |
| 20260510153513 | 72 | 21 | 1.0 | 10.0 | 0.00 | 0.51 | 0.00 | 86 | 1018.3 |
| 20260510153015 | 72 | 100 | 4.0 | 10.0 | 0.00 | 0.52 | 0.00 | 86 | 1018.2 |
| 20260510152506 | 71 | 99 | 3.0 | 8.0 | 0.00 | 0.54 | 0.00 | 85 | 1018.2 |
| 20260510152008 | 72 | 92 | 4.0 | 8.0 | 0.00 | 0.55 | 0.00 | 85 | 1018.2 |
| 20260510151516 | 72 | 20 | 2.0 | 8.0 | 0.00 | 0.56 | 0.00 | 85 | 1018.2 |
| 20260510151006 | 71 | 96 | 2.0 | 8.0 | 0.00 | 0.57 | 0.00 | 86 | 1018.2 |
| 20260510150507 | 71 | 92 | 3.0 | 10.0 | 0.00 | 0.58 | 0.00 | 86 | 1018.1 |
| 20260510150020 | 70 | 52 | 4.0 | 10.0 | 0.00 | 0.60 | 0.00 | 86 | 1018.1 |
| 20260510145511 | 71 | 135 | 5.0 | 10.0 | 0.00 | 0.62 | 0.00 | 87 | 1018.1 |
| 20260510145007 | 70 | 137 | 5.0 | 9.0 | 0.00 | 0.63 | 0.00 | 87 | 1018.1 |
| 20260510144537 | 70 | 18 | 2.0 | 7.0 | 0.00 | 0.64 | 0.00 | 87 | 1018.1 |
| 20260510144012 | 70 | 108 | 3.0 | 8.0 | 0.00 | 0.66 | 0.00 | 88 | 1018.1 |
| 20260510143511 | 70 | 82 | 3.0 | 9.0 | 0.00 | 0.67 | 0.00 | 88 | 1018.2 |
| 20260510143038 | 70 | 64 | 4.0 | 9.0 | 0.00 | 0.69 | 0.00 | 88 | 1018.3 |
| 20260510142510 | 70 | 76 | 4.0 | 8.0 | 0.00 | 0.72 | 0.00 | 90 | 1018.2 |
| 20260510142011 | 70 | 61 | 4.0 | 8.0 | 0.00 | 0.74 | 0.00 | 91 | 1018.2 |
| 20260510141515 | 69 | 89 | 2.0 | 8.0 | 0.00 | 0.77 | 0.00 | 91 | 1018.1 |
| 20260510141005 | 68 | 88 | 2.0 | 6.0 | 0.00 | 0.79 | 0.00 | 91 | 1018.1 |
| 20260510140507 | 68 | 44 | 3.0 | 6.0 | 0.00 | 0.81 | 0.00 | 91 | 1018.2 |
| 20260510140018 | 67 | 43 | 2.0 | 5.0 | 0.00 | 0.83 | 0.00 | 91 | 1018.1 |
| 20260510135509 | 67 | 40 | 2.0 | 5.0 | 0.00 | 0.85 | 0.00 | 91 | 1018.0 |
| 20260510135008 | 67 | 36 | 2.0 | 5.0 | 0.00 | 0.87 | 0.00 | 91 | 1018.1 |
| 20260510134524 | 67 | 79 | 2.0 | 6.0 | 0.00 | 0.90 | 0.00 | 91 | 1018.1 |
| 20260510134008 | 66 | 59 | 2.0 | 7.0 | 0.00 | 0.92 | 0.00 | 91 | 1018.1 |
| 20260510133510 | 66 | 111 | 4.0 | 7.0 | 0.00 | 0.94 | 0.00 | 91 | 1018.1 |
| 20260510133025 | 66 | 65 | 3.0 | 6.0 | 0.00 | 0.95 | 0.00 | 91 | 1018.1 |
| 20260510132511 | 66 | 52 | 3.0 | 5.0 | 0.00 | 0.96 | 0.00 | 91 | 1018.0 |
| 20260510132012 | 66 | 69 | 2.0 | 4.0 | 0.00 | 0.97 | 0.00 | 91 | 1017.8 |
| 20260510131534 | 66 | 42 | 2.0 | 6.0 | 0.00 | 0.98 | 0.00 | 91 | 1017.8 |
| 20260510131016 | 66 | 58 | 2.0 | 6.0 | 0.00 | 1.01 | 0.00 | 91 | 1017.8 |
| 20260510130510 | 65 | 42 | 2.0 | 6.0 | 0.00 | 1.05 | 0.00 | 91 | 1017.7 |
| 20260510130016 | 65 | 79 | 3.0 | 6.0 | 0.00 | 1.19 | 0.00 | 91 | 1017.6 |
| 20260510125508 | 65 | 55 | 2.0 | 7.0 | 0.00 | 1.43 | 0.00 | 91 | 1017.5 |
| 20260510125011 | 64 | 57 | 3.0 | 7.0 | 0.00 | 1.99 | 0.00 | 91 | 1017.4 |
| 20260510124522 | 64 | 66 | 2.0 | 4.0 | 0.00 | 2.77 | 0.00 | 91 | 1017.3 |
| 20260510124013 | 64 | 98 | 1.0 | 4.0 | 0.00 | 3.04 | 0.00 | 91 | 1017.3 |
| 20260510123514 | 63 | 89 | 1.0 | 6.0 | 0.00 | 3.04 | 0.00 | 91 | 1017.1 |
| 20260510123030 | 63 | 116 | 1.0 | 6.0 | 0.00 | 3.05 | 0.00 | 91 | 1017.1 |
| 20260510122510 | 63 | 121 | 2.0 | 5.0 | 0.00 | 3.05 | 0.00 | 91 | 1017.0 |
| 20260510122014 | 63 | 152 | 1.0 | 3.0 | 0.00 | 3.05 | 0.00 | 91 | 1016.9 |
| 20260510121526 | 63 | 152 | 0.0 | 2.0 | 0.00 | 3.05 | 0.00 | 91 | 1017.0 |
| 20260510121009 | 63 | 152 | 0.0 | 3.0 | 0.00 | 3.05 | 0.00 | 91 | 1017.0 |
| 20260510120510 | 63 | 152 | 0.0 | 3.0 | 0.00 | 3.05 | 0.00 | 91 | 1016.9 |
| 20260510120028 | 63 | 152 | 0.0 | 2.0 | 0.00 | 3.09 | 0.00 | 91 | 1016.8 |
| 20260510115507 | 63 | 152 | 0.0 | 3.0 | 0.00 | 3.09 | 0.00 | 91 | 1016.7 |
| 20260510115001 | 63 | 152 | 1.0 | 3.0 | 0.00 | 3.10 | 0.00 | 91 | 1016.6 |
| 20260510114501 | 63 | 152 | 1.0 | 3.0 | 0.00 | 3.10 | 0.00 | 91 | 1016.4 |
| 20260510114000 | 62 | 152 | 1.0 | 3.0 | 0.00 | 3.10 | 0.00 | 91 | 1016.3 |
| 20260510113502 | 62 | 152 | 1.0 | 3.0 | 0.00 | 3.10 | 0.00 | 91 | 1016.2 |
| 20260510113004 | 62 | 152 | 2.0 | 3.0 | 0.00 | 3.10 | 0.00 | 91 | 1015.9 |
| 20260510112502 | 62 | 78 | 0.0 | 3.0 | 0.00 | 3.10 | 0.00 | 91 | 1015.8 |
| 20260510112006 | 62 | 78 | 1.0 | 3.0 | 0.00 | 3.10 | 0.00 | 91 | 1015.7 |
| 20260510111508 | 62 | 78 | 1.0 | 2.0 | 0.00 | 3.10 | 0.00 | 91 | 1015.5 |
| 20260510111004 | 62 | 41 | 0.0 | 3.0 | 0.00 | 3.10 | 0.00 | 91 | 1015.3 |
| 20260510110507 | 62 | 32 | 1.0 | 4.0 | 0.00 | 3.10 | 0.00 | 91 | 1015.2 |
| 20260510110030 | 62 | 32 | 2.0 | 4.0 | 0.00 | 3.10 | 0.00 | 91 | 1015.1 |
| 20260510105509 | 62 | 46 | 2.0 | 4.0 | 0.00 | 3.10 | 0.00 | 91 | 1015.1 |
| 20260510105008 | 62 | 15 | 1.0 | 3.0 | 0.00 | 3.10 | 0.00 | 91 | 1015.0 |
| 20260510104517 | 63 | 57 | 1.0 | 4.0 | 0.00 | 3.10 | 0.00 | 91 | 1014.8 |
| 20260510104001 | 63 | 57 | 1.0 | 4.0 | 0.00 | 3.10 | 0.00 | 91 | 1014.8 |
| 20260510103501 | 63 | 51 | 2.0 | 4.0 | 0.00 | 3.10 | 0.00 | 91 | 1014.7 |
| 20260510103006 | 63 | 30 | 2.0 | 4.0 | 0.00 | 3.10 | 0.00 | 91 | 1014.7 |
| 20260510102507 | 62 | 37 | 2.0 | 4.0 | 0.00 | 3.10 | 0.00 | 91 | 1014.7 |
| 20260510102005 | 62 | 36 | 1.0 | 4.0 | 0.00 | 3.10 | 0.00 | 91 | 1014.7 |
| 20260510101504 | 62 | 37 | 2.0 | 4.0 | 0.00 | 3.10 | 0.00 | 91 | 1014.7 |
| 20260510101006 | 62 | 37 | 1.0 | 4.0 | 0.00 | 3.10 | 0.00 | 91 | 1014.7 |
| 20260510100504 | 63 | 53 | 1.0 | 3.0 | 0.00 | 3.10 | 0.00 | 91 | 1014.6 |
| 20260510100015 | 63 | 84 | 1.0 | 3.0 | 0.00 | 3.10 | 0.00 | 91 | 1014.5 |
| 20260510095505 | 62 | 44 | 1.0 | 2.0 | 0.00 | 3.10 | 0.00 | 91 | 1014.4 |
| 20260510095007 | 62 | 352 | 0.0 | 2.0 | 0.00 | 3.10 | 0.00 | 90 | 1014.4 |
| 20260510094536 | 61 | 352 | 0.0 | 1.0 | 0.00 | 3.10 | 0.00 | 91 | 1014.5 |
| 20260510094009 | 61 | 352 | 0.0 | 2.0 | 0.00 | 3.10 | 0.00 | 90 | 1014.5 |
| 20260510093510 | 61 | 352 | 0.0 | 2.0 | 0.00 | 3.10 | 0.00 | 90 | 1014.5 |
| 20260510093021 | 61 | 352 | 1.0 | 2.0 | 0.00 | 3.10 | 0.00 | 90 | 1014.5 |
| 20260510092502 | 61 | 352 | 0.0 | 0.0 | 0.00 | 3.10 | 0.00 | 90 | 1014.5 |
| 20260510092001 | 61 | 352 | 0.0 | 1.0 | 0.00 | 3.10 | 0.00 | 90 | 1014.6 |
| 20260510091516 | 62 | 352 | 0.0 | 2.0 | 0.00 | 3.10 | 0.00 | 91 | 1014.6 |
| 20260510091005 | 62 | 352 | 1.0 | 2.0 | 0.00 | 3.10 | 0.00 | 90 | 1014.7 |
| 20260510090505 | 62 | 352 | 0.0 | 1.0 | 0.00 | 3.10 | 0.00 | 90 | 1014.7 |
| 20260510090013 | 62 | 352 | 0.0 | 0.0 | 0.00 | 3.10 | 0.00 | 91 | 1014.6 |
| 20260510085504 | 63 | 352 | 0.0 | 0.0 | 0.00 | 3.11 | 0.00 | 91 | 1014.6 |
| 20260510085004 | 63 | 352 | 0.0 | 1.0 | 0.00 | 3.11 | 0.00 | 91 | 1014.6 |
| 20260510084514 | 63 | 352 | 0.0 | 2.0 | 0.00 | 3.12 | 0.00 | 90 | 1014.5 |
| 20260510084005 | 63 | 352 | 0.0 | 2.0 | 0.00 | 3.12 | 0.00 | 90 | 1014.4 |
| 20260510083507 | 63 | 352 | 1.0 | 2.0 | 0.00 | 3.12 | 0.00 | 90 | 1014.4 |
| 20260510083020 | 63 | 352 | 1.0 | 2.0 | 0.00 | 3.12 | 0.00 | 91 | 1014.4 |
| 20260510082504 | 63 | 352 | 0.0 | 2.0 | 0.00 | 3.12 | 0.00 | 91 | 1014.4 |
| 20260510082008 | 63 | 352 | 0.0 | 3.0 | 0.00 | 3.12 | 0.00 | 90 | 1014.4 |
| 20260510081524 | 63 | 352 | 1.0 | 3.0 | 0.00 | 3.12 | 0.00 | 90 | 1014.3 |
| 20260510081002 | 63 | 349 | 1.0 | 4.0 | 0.00 | 3.12 | 0.00 | 90 | 1014.2 |
| 20260510080504 | 63 | 352 | 2.0 | 4.0 | 0.00 | 3.12 | 0.00 | 90 | 1014.2 |
| 20260510080005 | 63 | 350 | 2.0 | 3.0 | 0.00 | 3.12 | 0.00 | 90 | 1014.2 |
| 20260510075504 | 63 | 5 | 0.0 | 2.0 | 0.00 | 3.12 | 0.00 | 90 | 1014.1 |
| 20260510075004 | 63 | 5 | 1.0 | 2.0 | 0.00 | 3.12 | 0.00 | 90 | 1014.1 |
| 20260510074512 | 63 | 5 | 0.0 | 2.0 | 0.00 | 3.12 | 0.00 | 90 | 1014.0 |
| 20260510074006 | 64 | 5 | 0.0 | 2.0 | 0.00 | 3.12 | 0.00 | 90 | 1014.0 |
| 20260510073505 | 64 | 5 | 1.0 | 2.0 | 0.00 | 3.12 | 0.00 | 90 | 1014.0 |
| 20260510073018 | 64 | 5 | 1.0 | 2.0 | 0.00 | 3.12 | 0.00 | 90 | 1014.0 |
| 20260510072507 | 64 | 5 | 0.0 | 1.0 | 0.00 | 3.12 | 0.00 | 90 | 1013.9 |
| 20260510072008 | 64 | 5 | 0.0 | 2.0 | 0.00 | 3.12 | 0.00 | 90 | 1013.9 |
| 20260510071519 | 64 | 5 | 0.0 | 2.0 | 0.00 | 3.12 | 0.00 | 90 | 1013.9 |
| 20260510071005 | 64 | 5 | 1.0 | 2.0 | 0.00 | 3.12 | 0.00 | 90 | 1014.0 |
| 20260510070510 | 64 | 5 | 0.0 | 2.0 | 0.00 | 3.12 | 0.00 | 90 | 1014.0 |
| 20260510070030 | 64 | 360 | 0.0 | 2.0 | 0.00 | 3.12 | 0.00 | 90 | 1014.1 |
| 20260510065509 | 64 | 360 | 0.0 | 3.0 | 0.00 | 3.12 | 0.00 | 90 | 1014.1 |
| 20260510065005 | 64 | 360 | 1.0 | 3.0 | 0.00 | 3.12 | 0.00 | 90 | 1014.3 |
| 20260510064508 | 64 | 57 | 1.0 | 2.0 | 0.00 | 3.12 | 0.00 | 90 | 1014.2 |
| 20260510064004 | 64 | 57 | 1.0 | 2.0 | 0.00 | 3.12 | 0.00 | 90 | 1014.2 |
| 20260510063504 | 64 | 57 | 1.0 | 2.0 | 0.00 | 3.13 | 0.00 | 90 | 1014.3 |
| 20260510063013 | 65 | 61 | 0.0 | 1.0 | 0.00 | 3.13 | 0.00 | 90 | 1014.1 |
| 20260510062505 | 65 | 61 | 0.0 | 2.0 | 0.00 | 3.13 | 0.00 | 90 | 1013.9 |
| 20260510062007 | 65 | 61 | 0.0 | 2.0 | 0.00 | 3.13 | 0.00 | 90 | 1014.0 |
| 20260510061518 | 65 | 61 | 1.0 | 2.0 | 0.00 | 3.14 | 0.00 | 90 | 1014.1 |
| 20260510061007 | 65 | 60 | 0.0 | 2.0 | 0.00 | 3.15 | 0.00 | 90 | 1014.3 |
| 20260510060509 | 65 | 60 | 0.0 | 4.0 | 0.00 | 3.16 | 0.00 | 90 | 1014.4 |
| 20260510060021 | 65 | 60 | 0.0 | 4.0 | 0.00 | 3.17 | 0.00 | 90 | 1014.3 |
| 20260510055507 | 65 | 82 | 1.0 | 3.0 | 0.00 | 3.18 | 0.00 | 90 | 1014.1 |
| 20260510055008 | 65 | 41 | 0.0 | 2.0 | 0.00 | 3.19 | 0.00 | 90 | 1014.2 |
| 20260510054525 | 66 | 41 | 0.0 | 2.0 | 0.00 | 3.19 | 0.00 | 90 | 1014.3 |
| 20260510054009 | 66 | 315 | 1.0 | 2.0 | 0.00 | 3.20 | 0.00 | 90 | 1014.3 |
| 20260510053504 | 66 | 315 | 1.0 | 2.0 | 0.00 | 3.20 | 0.00 | 90 | 1014.4 |
| 20260510053033 | 66 | 315 | 0.0 | 1.0 | 0.00 | 3.21 | 0.00 | 90 | 1014.5 |
| 20260510052504 | 66 | 315 | 0.0 | 2.0 | 0.00 | 3.21 | 0.00 | 90 | 1014.5 |
| 20260510052008 | 66 | 315 | 0.0 | 2.0 | 0.00 | 3.21 | 0.00 | 90 | 1014.5 |
| 20260510051516 | 66 | 315 | 1.0 | 2.0 | 0.00 | 3.21 | 0.00 | 90 | 1014.5 |
| 20260510051005 | 66 | 315 | 1.0 | 3.0 | 0.00 | 3.21 | 0.00 | 90 | 1014.5 |
| 20260510050509 | 66 | 333 | 1.0 | 4.0 | 0.00 | 3.21 | 0.00 | 90 | 1014.4 |
| 20260510050021 | 66 | 333 | 2.0 | 4.0 | 0.00 | 3.22 | 0.00 | 90 | 1014.3 |
| 20260510045508 | 66 | 346 | 2.0 | 4.0 | 0.00 | 3.22 | 3.22 | 90 | 1014.3 |
| 20260510045010 | 66 | 35 | 1.0 | 8.0 | 0.00 | 3.22 | 3.22 | 90 | 1014.2 |
| 20260510044525 | 66 | 58 | 1.0 | 9.0 | 0.00 | 3.22 | 3.22 | 90 | 1014.0 |
| 20260510044010 | 66 | 81 | 4.0 | 9.0 | 0.00 | 3.22 | 3.22 | 90 | 1013.8 |
| 20260510043513 | 66 | 101 | 5.0 | 7.0 | 0.00 | 3.22 | 3.22 | 90 | 1013.6 |
| 20260510043039 | 66 | 352 | 3.0 | 5.0 | 0.00 | 3.22 | 3.22 | 90 | 1014.1 |
| 20260510042508 | 66 | 349 | 2.0 | 5.0 | 0.00 | 3.22 | 3.22 | 90 | 1014.1 |
| 20260510042005 | 66 | 65 | 2.0 | 5.0 | 0.00 | 3.22 | 3.22 | 90 | 1013.8 |
| 20260510041522 | 66 | 51 | 2.0 | 4.0 | 0.00 | 3.22 | 3.22 | 90 | 1013.8 |
| 20260510041005 | 66 | 76 | 2.0 | 7.0 | 0.00 | 3.22 | 3.22 | 90 | 1014.0 |
| 20260510040505 | 66 | 95 | 3.0 | 7.0 | 0.00 | 3.22 | 3.22 | 90 | 1014.0 |
| 20260510040031 | 66 | 72 | 1.0 | 3.0 | 0.00 | 3.22 | 3.22 | 90 | 1014.4 |
| 20260510035509 | 66 | 67 | 0.0 | 2.0 | 0.00 | 3.22 | 3.22 | 90 | 1014.6 |
| 20260510035010 | 66 | 67 | 0.0 | 2.0 | 0.00 | 3.22 | 3.22 | 90 | 1014.8 |
| 20260510034524 | 66 | 67 | 1.0 | 2.0 | 0.00 | 3.22 | 3.22 | 90 | 1015.0 |
| 20260510034013 | 66 | 67 | 0.0 | 2.0 | 0.00 | 3.22 | 3.22 | 90 | 1015.1 |
| 20260510033508 | 66 | 67 | 0.0 | 2.0 | 0.00 | 3.22 | 3.22 | 90 | 1015.2 |
| 20260510033026 | 66 | 67 | 0.0 | 3.0 | 0.00 | 3.22 | 3.22 | 90 | 1015.1 |
| 20260510032508 | 66 | 67 | 1.0 | 3.0 | 0.00 | 3.22 | 3.22 | 90 | 1015.0 |
| 20260510032016 | 66 | 71 | 2.0 | 3.0 | 0.00 | 3.22 | 3.22 | 90 | 1015.0 |
| 20260510031527 | 66 | 71 | 0.0 | 2.0 | 0.00 | 3.22 | 3.22 | 90 | 1015.0 |
| 20260510031011 | 66 | 71 | 1.0 | 2.0 | 0.00 | 3.22 | 3.22 | 90 | 1015.0 |
| 20260510030505 | 66 | 71 | 1.0 | 2.0 | 0.00 | 3.22 | 3.22 | 90 | 1015.0 |
| 20260510030015 | 66 | 71 | 0.0 | 2.0 | 0.00 | 3.22 | 3.22 | 90 | 1015.1 |
| 20260510025505 | 66 | 71 | 0.0 | 2.0 | 0.00 | 3.22 | 3.22 | 90 | 1014.9 |
| 20260510025008 | 66 | 71 | 1.0 | 2.0 | 0.00 | 3.22 | 3.22 | 90 | 1014.9 |
| 20260510024518 | 66 | 69 | 0.0 | 3.0 | 0.01 | 3.22 | 3.22 | 90 | 1014.8 |
| 20260510024010 | 66 | 69 | 0.0 | 3.0 | 0.01 | 3.22 | 3.22 | 90 | 1014.7 |
| 20260510023507 | 66 | 69 | 2.0 | 3.0 | 0.01 | 3.22 | 3.22 | 90 | 1014.9 |
| 20260510023024 | 66 | 69 | 1.0 | 6.0 | 0.01 | 3.22 | 3.22 | 90 | 1014.5 |
| 20260510022508 | 66 | 66 | 2.0 | 6.0 | 0.01 | 3.22 | 3.22 | 90 | 1014.2 |
| 20260510022007 | 66 | 46 | 3.0 | 6.0 | 0.01 | 3.22 | 3.22 | 90 | 1014.2 |
| 20260510021520 | 66 | 46 | 4.0 | 7.0 | 0.01 | 3.22 | 3.22 | 90 | 1014.4 |
| 20260510021004 | 66 | 5 | 4.0 | 8.0 | 0.01 | 3.22 | 3.22 | 90 | 1014.4 |
| 20260510020506 | 66 | 32 | 4.0 | 9.0 | 0.01 | 3.22 | 3.22 | 90 | 1014.1 |
| 20260510020011 | 66 | 5 | 4.0 | 9.0 | 0.01 | 3.22 | 3.22 | 90 | 1014.4 |
| 20260510015507 | 66 | 342 | 4.0 | 9.0 | 0.01 | 3.22 | 3.22 | 90 | 1014.6 |
| 20260510015007 | 66 | 327 | 4.0 | 9.0 | 0.01 | 3.22 | 3.22 | 90 | 1014.5 |
| 20260510014521 | 66 | 331 | 5.0 | 8.0 | 0.00 | 3.21 | 3.21 | 90 | 1014.2 |
| 20260510014005 | 66 | 332 | 3.0 | 5.0 | 0.00 | 3.21 | 3.21 | 90 | 1014.2 |
| 20260510013509 | 66 | 275 | 1.0 | 4.0 | 0.00 | 3.21 | 3.21 | 90 | 1013.8 |
| 20260510013024 | 66 | 319 | 1.0 | 4.0 | 0.00 | 3.21 | 3.21 | 90 | 1013.5 |
| 20260510012507 | 66 | 211 | 2.0 | 6.0 | 0.00 | 3.21 | 3.21 | 90 | 1013.4 |
| 20260510012007 | 66 | 137 | 3.0 | 7.0 | 0.00 | 3.21 | 3.21 | 90 | 1013.1 |
| 20260510011533 | 66 | 90 | 3.0 | 7.0 | 0.01 | 3.21 | 3.21 | 90 | 1013.1 |
| 20260510011007 | 66 | 116 | 4.0 | 7.0 | 0.01 | 3.21 | 3.21 | 90 | 1013.0 |
| 20260510010513 | 66 | 126 | 4.0 | 7.0 | 0.01 | 3.21 | 3.21 | 90 | 1013.0 |
| 20260510010010 | 66 | 146 | 3.0 | 6.0 | 0.01 | 3.21 | 3.21 | 90 | 1013.3 |
| 20260510005504 | 66 | 128 | 1.0 | 4.0 | 0.01 | 3.21 | 3.21 | 90 | 1013.4 |
| 20260510005004 | 66 | 117 | 2.0 | 4.0 | 0.01 | 3.21 | 3.21 | 90 | 1013.4 |
| 20260510004517 | 66 | 55 | 2.0 | 4.0 | 0.01 | 3.21 | 3.21 | 90 | 1013.4 |
| 20260510004005 | 66 | 157 | 2.0 | 3.0 | 0.01 | 3.21 | 3.21 | 90 | 1013.7 |
| 20260510003504 | 66 | 157 | 0.0 | 3.0 | 0.01 | 3.21 | 3.21 | 90 | 1013.9 |
| 20260510003018 | 66 | 157 | 0.0 | 3.0 | 0.02 | 3.21 | 3.21 | 89 | 1013.9 |
| 20260510002506 | 66 | 116 | 1.0 | 2.0 | 0.02 | 3.21 | 3.21 | 89 | 1013.8 |
| 20260510002011 | 66 | 116 | 1.0 | 2.0 | 0.03 | 3.21 | 3.21 | 89 | 1013.7 |
| 20260510001520 | 66 | 215 | 0.0 | 2.0 | 0.02 | 3.20 | 3.20 | 89 | 1013.8 |
| 20260510001008 | 66 | 194 | 0.0 | 2.0 | 0.03 | 3.20 | 3.20 | 89 | 1013.9 |
| 20260510000507 | 66 | 194 | 1.0 | 3.0 | 0.03 | 3.20 | 3.20 | 89 | 1013.9 |
| 20260510000034 | 66 | 194 | 1.0 | 5.0 | 0.04 | 3.20 | 3.20 | 89 | 1013.7 |
| 20260509235511 | 66 | 194 | 0.0 | 5.0 | 0.05 | 3.20 | 3.20 | 89 | 1013.9 |
| 20260509235005 | 66 | 196 | 2.0 | 5.0 | 0.05 | 3.20 | 3.20 | 89 | 1014.0 |
| 20260509234512 | 66 | 197 | 1.0 | 6.0 | 0.06 | 3.21 | 3.20 | 89 | 1013.8 |
| 20260509234008 | 66 | 164 | 2.0 | 6.0 | 0.07 | 3.21 | 3.20 | 89 | 1013.8 |
| 20260509233503 | 66 | 150 | 3.0 | 6.0 | 0.07 | 3.21 | 3.20 | 89 | 1013.9 |
| 20260509233004 | 67 | 201 | 3.0 | 4.0 | 0.07 | 3.20 | 3.19 | 89 | 1013.8 |
| 20260509232504 | 67 | 201 | 1.0 | 2.0 | 0.07 | 3.20 | 3.19 | 89 | 1013.7 |
| 20260509232000 | 67 | 201 | 0.0 | 2.0 | 0.06 | 3.20 | 3.18 | 89 | 1013.5 |
| 20260509231501 | 66 | 201 | 0.0 | 2.0 | 0.07 | 3.21 | 3.18 | 89 | 1013.5 |
| 20260509231003 | 66 | 201 | 1.0 | 3.0 | 0.06 | 3.22 | 3.17 | 89 | 1013.5 |
| 20260509230504 | 67 | 201 | 0.0 | 4.0 | 0.06 | 3.22 | 3.17 | 90 | 1013.2 |
| 20260509230008 | 67 | 201 | 1.0 | 4.0 | 0.06 | 3.22 | 3.16 | 90 | 1013.4 |
| 20260509225503 | 67 | 201 | 0.0 | 5.0 | 0.05 | 3.21 | 3.15 | 90 | 1013.4 |
| 20260509225004 | 67 | 201 | 1.0 | 5.0 | 0.05 | 3.22 | 3.15 | 90 | 1013.5 |
| 20260509224509 | 67 | 155 | 0.0 | 5.0 | 0.05 | 3.21 | 3.14 | 90 | 1013.5 |
| 20260509224004 | 67 | 155 | 2.0 | 7.0 | 0.04 | 3.20 | 3.13 | 90 | 1013.5 |
| 20260509223507 | 67 | 223 | 2.0 | 9.0 | 0.04 | 3.21 | 3.13 | 90 | 1013.8 |
| 20260509223014 | 67 | 178 | 2.0 | 9.0 | 0.03 | 3.20 | 3.12 | 90 | 1013.6 |
| 20260509222507 | 67 | 202 | 4.0 | 8.0 | 0.03 | 3.20 | 3.12 | 90 | 1013.5 |
| 20260509222011 | 67 | 288 | 3.0 | 8.0 | 0.03 | 3.20 | 3.12 | 90 | 1013.8 |
| 20260509221503 | 67 | 160 | 3.0 | 6.0 | 0.02 | 3.20 | 3.11 | 90 | 1013.1 |
| 20260509221004 | 67 | 140 | 3.0 | 5.0 | 0.02 | 3.20 | 3.11 | 90 | 1013.1 |
| 20260509220504 | 67 | 202 | 1.0 | 5.0 | 0.02 | 3.20 | 3.11 | 90 | 1013.4 |
| 20260509220008 | 67 | 287 | 2.0 | 5.0 | 0.01 | 3.20 | 3.10 | 90 | 1013.3 |
| 20260509215504 | 67 | 126 | 0.0 | 3.0 | 0.01 | 3.21 | 3.10 | 90 | 1012.5 |
| 20260509215003 | 67 | 126 | 1.0 | 3.0 | 0.01 | 3.21 | 3.10 | 90 | 1012.5 |
| 20260509214508 | 67 | 74 | 1.0 | 3.0 | 0.01 | 3.21 | 3.09 | 90 | 1012.4 |
| 20260509214003 | 67 | 149 | 0.0 | 2.0 | 0.01 | 3.21 | 3.09 | 90 | 1012.3 |
| 20260509213504 | 67 | 149 | 0.0 | 3.0 | 0.01 | 3.22 | 3.09 | 90 | 1012.5 |
| 20260509213025 | 67 | 149 | 1.0 | 3.0 | 0.02 | 3.23 | 3.09 | 90 | 1012.5 |
| 20260509212505 | 67 | 149 | 0.0 | 5.0 | 0.03 | 3.24 | 3.09 | 90 | 1012.3 |
| 20260509212009 | 67 | 148 | 2.0 | 5.0 | 0.04 | 3.25 | 3.09 | 90 | 1012.2 |
| 20260509211516 | 67 | 167 | 2.0 | 5.0 | 0.05 | 3.26 | 3.09 | 90 | 1012.3 |
| 20260509211010 | 67 | 288 | 1.0 | 4.0 | 0.05 | 3.28 | 3.09 | 90 | 1012.5 |
| 20260509210507 | 67 | 217 | 3.0 | 4.0 | 0.06 | 3.29 | 3.09 | 90 | 1012.5 |
| 20260509210001 | 67 | 124 | 1.0 | 6.0 | 0.06 | 3.31 | 3.09 | 90 | 1012.0 |
| 20260509205504 | 67 | 259 | 1.0 | 8.0 | 0.06 | 3.33 | 3.09 | 90 | 1012.3 |
| 20260509205005 | 67 | 237 | 2.0 | 8.0 | 0.07 | 3.35 | 3.09 | 90 | 1012.0 |
| 20260509204505 | 67 | 132 | 5.0 | 8.0 | 0.07 | 3.35 | 3.08 | 90 | 1011.6 |
| 20260509204004 | 66 | 164 | 4.0 | 10.0 | 0.08 | 3.37 | 3.08 | 90 | 1012.3 |
| 20260509203504 | 67 | 124 | 1.0 | 10.0 | 0.09 | 3.39 | 3.08 | 90 | 1012.7 |
| 20260509203013 | 66 | 140 | 3.0 | 8.0 | 0.08 | 3.39 | 3.07 | 90 | 1013.0 |
| 20260509202504 | 67 | 213 | 3.0 | 6.0 | 0.07 | 3.40 | 3.06 | 90 | 1013.6 |
| 20260509202008 | 67 | 253 | 1.0 | 7.0 | 0.06 | 3.42 | 3.05 | 90 | 1013.6 |
| 20260509201512 | 66 | 232 | 3.0 | 7.0 | 0.05 | 3.43 | 3.04 | 90 | 1013.6 |
| 20260509201007 | 66 | 270 | 3.0 | 8.0 | 0.06 | 3.46 | 3.04 | 90 | 1013.6 |
| 20260509200511 | 66 | 211 | 3.0 | 8.0 | 0.05 | 3.48 | 3.03 | 90 | 1013.1 |
| 20260509200017 | 66 | 129 | 5.0 | 9.0 | 0.05 | 3.51 | 3.03 | 90 | 1012.6 |
| 20260509195509 | 66 | 165 | 3.0 | 9.0 | 0.05 | 3.56 | 3.03 | 90 | 1013.0 |
| 20260509195007 | 66 | 174 | 2.0 | 7.0 | 0.04 | 3.63 | 3.02 | 90 | 1013.4 |
| 20260509194526 | 66 | 182 | 3.0 | 7.0 | 0.03 | 3.71 | 3.01 | 90 | 1013.5 |
| 20260509194006 | 66 | 174 | 3.0 | 6.0 | 0.02 | 3.75 | 3.00 | 90 | 1013.7 |
| 20260509193505 | 66 | 234 | 2.0 | 6.0 | 0.01 | 3.79 | 2.99 | 90 | 1013.9 |
| 20260509193016 | 66 | 233 | 3.0 | 5.0 | 0.01 | 3.81 | 2.99 | 90 | 1013.7 |
| 20260509192506 | 66 | 227 | 3.0 | 5.0 | 0.02 | 3.83 | 2.99 | 90 | 1013.6 |
| 20260509192004 | 66 | 227 | 1.0 | 6.0 | 0.02 | 3.90 | 2.99 | 90 | 1013.2 |
| 20260509191512 | 66 | 234 | 2.0 | 6.0 | 0.02 | 3.96 | 2.99 | 90 | 1013.5 |
| 20260509191006 | 66 | 248 | 2.0 | 6.0 | 0.01 | 4.02 | 2.98 | 90 | 1013.4 |
| 20260509190512 | 65 | 221 | 2.0 | 5.0 | 0.01 | 4.16 | 2.98 | 90 | 1013.3 |
| 20260509190016 | 65 | 191 | 2.0 | 5.0 | 0.01 | 4.25 | 2.98 | 90 | 1013.2 |
| 20260509185505 | 65 | 227 | 1.0 | 5.0 | 0.01 | 4.29 | 2.98 | 90 | 1013.3 |
| 20260509185009 | 65 | 209 | 2.0 | 7.0 | 0.01 | 4.30 | 2.98 | 90 | 1013.3 |
| 20260509184533 | 65 | 205 | 2.0 | 7.0 | 0.01 | 4.31 | 2.98 | 90 | 1013.4 |
| 20260509184012 | 65 | 228 | 3.0 | 7.0 | 0.01 | 4.31 | 2.98 | 90 | 1013.4 |
| 20260509183508 | 65 | 160 | 1.0 | 7.0 | 0.01 | 4.33 | 2.98 | 90 | 1013.2 |
| 20260509183031 | 65 | 138 | 2.0 | 10.0 | 0.01 | 4.35 | 2.98 | 90 | 1013.2 |
| 20260509182507 | 64 | 192 | 3.0 | 13.0 | 0.00 | 4.37 | 2.97 | 90 | 1013.4 |
| 20260509182004 | 64 | 158 | 7.0 | 13.0 | 0.00 | 4.44 | 2.97 | 90 | 1013.1 |
| 20260509181509 | 64 | 105 | 5.0 | 10.0 | 0.00 | 4.55 | 2.97 | 90 | 1013.2 |
| 20260509181004 | 64 | 130 | 3.0 | 10.0 | 0.00 | 4.63 | 2.97 | 90 | 1013.6 |
| 20260509180508 | 64 | 188 | 3.0 | 9.0 | 0.00 | 4.63 | 2.97 | 90 | 1013.8 |
| 20260509180015 | 64 | 135 | 4.0 | 9.0 | 0.00 | 4.63 | 2.97 | 90 | 1013.6 |
| 20260509175513 | 64 | 207 | 3.0 | 9.0 | 0.01 | 4.63 | 2.97 | 90 | 1013.8 |
| 20260509175007 | 64 | 198 | 4.0 | 8.0 | 0.03 | 4.63 | 2.97 | 90 | 1013.9 |
| 20260509174522 | 64 | 146 | 4.0 | 8.0 | 0.05 | 4.63 | 2.97 | 90 | 1013.7 |
| 20260509174008 | 64 | 184 | 3.0 | 6.0 | 0.06 | 4.63 | 2.97 | 90 | 1013.8 |
| 20260509173508 | 64 | 142 | 3.0 | 7.0 | 0.08 | 4.63 | 2.97 | 90 | 1013.7 |
| 20260509173021 | 64 | 118 | 3.0 | 7.0 | 0.11 | 4.63 | 2.97 | 90 | 1013.5 |
| 20260509172509 | 64 | 148 | 4.0 | 7.0 | 0.13 | 4.63 | 2.97 | 90 | 1013.6 |
| 20260509172011 | 64 | 149 | 3.0 | 6.0 | 0.15 | 4.63 | 2.97 | 90 | 1013.9 |
| 20260509171525 | 64 | 123 | 2.0 | 7.0 | 0.17 | 4.63 | 2.97 | 90 | 1013.9 |
| 20260509171004 | 64 | 199 | 4.0 | 9.0 | 0.18 | 4.63 | 2.97 | 90 | 1014.0 |
| 20260509170504 | 64 | 250 | 3.0 | 15.0 | 0.19 | 4.63 | 2.97 | 90 | 1014.0 |
| 20260509170011 | 64 | 219 | 4.0 | 19.0 | 0.21 | 4.63 | 2.97 | 90 | 1013.3 |
| 20260509165508 | 64 | 128 | 8.0 | 19.0 | 0.21 | 4.62 | 2.96 | 90 | 1012.9 |
| 20260509165007 | 64 | 100 | 10.0 | 15.0 | 0.20 | 4.60 | 2.94 | 90 | 1012.0 |
| 20260509164518 | 64 | 90 | 8.0 | 11.0 | 0.20 | 4.58 | 2.92 | 90 | 1013.3 |